COSMOS 2352

Satellite information

Favourite Embed

Satellite Type and Status

PAYLOADIN ORBIT

Key statistics

Satellite COSMOS 2352 at a glance.

Uptime

9948

Days in orbit

Revolutions

≈ 12.2

Per day

Orbit

LEO

Low Earth Orbit

Inclination

82.6

Latest

Satellite identification and parameters

Extended collection of information and parameters for COSMOS 2352.

Object identification

Identified? True

Debris? False

Object name: COSMOS 2352

International designator: 1998-036A

Object number (NORAD): 25363

Object ID (CCSDS): 25363

Country: COMMONWEALTH OF INDEPENDENT STATES (CIS)

Current information (Y/N): Y

RCS size: LARGE

Orbital parameters

Period: 118.021 minutes

Inclination: 82.5964 deg

SMA: 7970.127 km

Apoapsis: 1873.061 km

Periapsis: 1310.922 km

RAAN: 169.2694 deg

Eccentricy: 0.03526533

Argument of periapsis: 135.1387 deg

Mean anomaly: 36.2575 deg

Mean motion: 12.20126718 rev/day

Mean motion (dot): 0.00000046 rev/day2

B* drag term: 0.00027126558 1/REarth

Two-line elements (TLE)

Creation date: Sept. 8, 2025, 6:18 p.m.

Reference frame: TEME

Reference center: EARTH

Epoch: Sept. 8, 2025, 12:06 p.m. UTC

TLE line 0: 0 COSMOS 2352

TLE line 1: 1 25363U 98036A 25251.50450899 .00000046 00000-0 27127-3 0 9992

TLE line 2: 2 25363 82.5964 169.2694 0352653 135.1387 36.2575 12.20126718212940

Live tracking on map

Real-time ground track for satellite COSMOS 2352.

In-orbit conjunctions

There are no conjunctions computed for COSMOS 2352, at the moment. Check back to stay up to date, as we update our databases every day.

Go to all conjunctions

Associated space launch

Second generation store-dump military communications satellites

COSMOS 2352 was lifted into orbit during the mission ‘Tsiklon-3 | Strela-3 119 to 124’, on board a Tsiklon-3 space rocket.

The launch took place on June 15, 1998, 10:58 p.m. from 32/1.

For more information about the launch, click the button.

Launch to space Tsiklon-3 | Strela-3 119 to 124
Tsiklon-3 | Strela-3 119 to 124

Agency: N/A

Status: Launch Successful

Launch date: June 15, 1998, 10:58 p.m. UTC

Rocket: Tsiklon-3

Launch pad: 32/1

Location: Plesetsk Cosmodrome, Russian Federation

...

Latest news about this satellite

There are no fresh news available about this satellite. Check back as we update our databases every day.


Newsletter sign-up

Weekly statistics, charts and insights to help you stay on top of the space industry.